Weather Roundup
Issued by NWS Chicago, IL

Home | Current Version | Previous Version | Graphics & Text | Print | Product List | Glossary On
Versions: 1 2 3 4 5 6 7 8 9 10 11 12 13 14 15 16 17 18 19 20 21 22 23 24 25 26 27 28 29 30 31 32 33 34 35 36 37 38 39 40 41 42 43 44 45 46 47 48 49 50
000
NZUS59 KLOT 250510
HRRLOT

CHICAGO AREA WEATHER ROUNDUP
NATIONAL WEATHER SERVICE CHICAGO/ROMEOVILLE IL
1100 PM CST SAT JAN 24 2015

NOTE: "FAIR" INDICATES FEW OR NO CLOUDS BELOW 12,000 FEET WITH NO
SIGNIFICANT WEATHER AND/OR OBSTRUCTIONS TO VISIBILITY.

* THESE STATIONS ARE NOT UNDER NWS QUALITY CONTROL. THEY ALSO MAY NOT
  REPORT WEATHER SUCH AS PRECIPITATION OR FOG.

ILZ005-006-012>014-019>023-250600-
NORTHEAST ILLINOIS

CITY           SKY/WX    TMP DP  RH WIND       PRES   REMARKS
OHARE          CLOUDY    32  29  88 N5        29.67S WCI  27
MIDWAY         CLOUDY    36  31  82 NE5       29.68S
AURORA         MOCLDY    32  29  88 NE7       29.67R FOG     WCI  26
LANSING*       MOCLDY    33  32  96 CALM      29.68S FOG
JOLIET*        MOCLDY    29  29  97 CALM      29.67S FOG
WAUKEGAN       CLOUDY    32  30  92 CALM      29.67F
DUPAGE AIRPORT MOCLDY    31  29  92 NE6       29.67R WCI  25
WHEELING       CLOUDY    32  29  88 CALM      29.70S
KANKAKEE*      MOCLDY    32  31  97 CALM      29.68S
MORRIS*        MOCLDY    34  34  99 CALM      29.66R FOG
LEWIS AIRPORT* MOCLDY    32  32 100 E6        29.67R FOG     WCI  26
NORTHERLY IS     N/A     33  30  89 N8          N/A  WCI  26
$$

WIZ051-052-058>065-066-070>072-250600-
SOUTHEAST WISCONSIN

CITY           SKY/WX    TMP DP  RH WIND       PRES   REMARKS
MILWAUKEE      CLOUDY    34  29  82 N3        29.68S
KENOSHA*       CLOUDY    33  30  88 N3        29.67F
RACINE*        CLOUDY    33  29  85 NW5       29.69S WCI  29
BURLINGTON     MOCLDY    29  28  97 CALM      29.68R
WAUKESHA       CLOUDY    32  30  93 CALM      29.68S
WEST BEND      MIX PCPN  32  28  86 NE13G20   29.70R WCI  22
$$

INZ001>003-010>013-019-020-250600-
NORTHWEST INDIANA

CITY           SKY/WX    TMP DP  RH WIND       PRES   REMARKS
GARY*          MOCLDY    33  30  88 NE3       29.69S FOG
MICHIGAN CITY* NOT AVBL
RENSSELAER*    NOT AVBL
VALPARAISO     FOG       32  30  92 CALM      29.68S VSB 3/4
$$

LMZ740>746-250600-
SOUTHERN LAKE MICHIGAN

STATION/POSITION TIME  SKY/WX   TEMP WIND        PRES    VSBY
                                AIR  DIR/SP/G
                 (UTC)          (F)  (DEG/KT/KT) (MB)    (MI)
HARRISON CRIB    0500            33   10/  9/ 10   N/A
BURNHAM HARBOR   0500            33   10/  7/  7   N/A
CALUMET HARBOR   0500            33   50/  3/  3   N/A
BURNS HARBOR     NOT AVBL
MICHIGAN CITY    0500            34  170/  2/  3   N/A
$$

ABBREVIATIONS USED IN REMARKS
   TC - TEMPERATURE IN CELSIUS
  WCI - WIND CHILL INDEX
   HX - HEAT INDEX
  VSB - VISIBILITY
$$


USA.gov is the U.S. government's official web portal to all federal, state and local government web resources and services.